Location: Carrer del Canonge
(41.4901°N, 2.2931°E)
Time: 04:07:36
(UTC+00:00)

Sich 1 Rocket - Pass Details

Date: 18 September 2020
Orbit: 616 x 652 km, 82.5° (Epoch: 25 October)

Event Time Altitude Azimuth Distance (km) Brightness Sun altitude
Rises 19:18:40 0° 194° (SSW) 2,908 7.0 -16.4°
Reaches altitude 10° 19:20:54 10° 198° (SSW) 2,010 6.2 -16.8°
Maximum altitude 19:25:20 63° 280° (W) 717 4.1 -17.5°
Drops below altitude 10° 19:29:50 10° 1° (N) 2,048 6.4 -18.3°
Sets 19:32:08 0° 5° (N) 2,968 7.2 -18.8°
